Content
SEND FEEDBACK

Daily
Averages
Monthly
Summary
Mexico

PLAYA DEL CARMEN, QUINTANA ROO


Home > North America > Mexico > Quintana Roo
Elevation: 30 feet     Latitude: 20 38N     Longitude: 087 04W

WEATHER
 
SELECT A DAY
Number of Records: 202,104;   Date Range: 2/21/06 - 10/23/14
 
SHARE

PRINT THIS DATA

[ ← Previous Day ]
WEATHER ALMANAC - FEBRUARY 25, 2013
[ Next Day → ]
[ °C ]   °F
Weather ElementAverageHighLow
Temperature76.3 °F87.8 °F (1:35 pm)68 °F (3:35 am)
Dewpoint38.7 °F73.4 °F (9:55 am) (7:00 pm)
Humidity57.5 %89 % (9:55 am)38 % (1:55 pm)
Barometer29.87 in29.94 in (12:35 am)29.81 in (4:35 pm)
Wind Speed6.3 mph15 mph (2:35 pm)
Wind Gust19.6 mph (4:55 pm)
Weather ElementAverage
Visibility6.9 mi
Wind DirectionSSE (150.4 °)

Weather ElementTotal
Precipitation---
Cooling Degree Days12.9 (Base 65)
Growing Degree Days27.9 (Base 50)
Averaged from 71 records on February 25, 2013
WEATHER CONDITIONS BREAKOUT
WIND DIRECTION BREAKOUT
WEATHER BY HOUR - FEBRUARY 25, 2013
[ °C ]   °F
Local TimeTemperatureDewpointHumidityBarometerVisibilityWind DirectionWind SpeedGust SpeedPrecipitationEventsConditions
12:35 AM69.8 °F0.0 °F29.94 in7.0 miEast (100°)6.9 mphOvercast
12:55 AM69.8 °F0.0 °F29.94 in5.0 miEast (100°)4.6 mphHaze
1:15 AM69.8 °F0.0 °F29.94 in1.8 miEast (100°)5.8 mphOvercast
1:35 AM69.8 °F0.0 °F29.94 in1.5 miEast (90°)3.5 mphOvercast
1:55 AM69.8 °F0.0 °F29.93 in1.2 miEast (80°)4.6 mphOvercast
2:15 AM69.8 °F0.0 °F29.94 in2.5 miCalmOvercast
2:35 AM69.8 °F0.0 °F29.93 in3.0 miESE (110°)3.5 mphOvercast
2:55 AM69.8 °F0.0 °F29.91 in3.0 miEast (90°)3.5 mphOvercast
3:15 AM69.8 °F0.0 °F29.89 in2.5 miESE (110°)6.9 mphOvercast
3:35 AM68.0 °F0.0 °F29.89 in3.0 miSE (130°)5.8 mphOvercast
3:55 AM68.0 °F0.0 °F29.89 in3.0 miSE (130°)3.5 mphOvercast
4:15 AM68.0 °F0.0 °F29.88 in3.0 miESE (120°)3.5 mphOvercast
4:35 AM68.0 °F0.0 °F29.88 in2.0 miESE (120°)3.5 mphOvercast
4:55 AM68.0 °F0.0 °F29.88 in1.0 miESE (120°)4.6 mphOvercast
5:15 AM68.0 °F0.0 °F29.88 in0.8 miESE (120°)4.6 mphOvercast
5:35 AM68.0 °F0.0 °F29.88 in1.0 miESE (110°)5.8 mphOvercast
5:55 AM68.0 °F0.0 °F29.88 in1.2 miEast (100°)4.6 mphOvercast
6:15 AM68.0 °F0.0 °F29.88 in2.0 miESE (110°)5.8 mphOvercast
6:35 AM68.0 °F0.0 °F29.89 in1.8 miSE (130°)4.6 mphOvercast
6:55 AM68.0 °F0.0 °F29.91 in2.0 miSE (130°)5.8 mphOvercast
7:15 AM68.0 °F0.0 °F29.92 in2.0 miESE (120°)4.6 mphOvercast
7:35 AM68.0 °F0.0 °F29.91 in1.0 miSE (130°)5.8 mphOvercast
7:55 AM69.8 °F0.0 °F29.92 in0.2 miSE (130°)5.8 mphFogFog
8:15 AM69.8 °F0.0 °F29.92 in0.5 miSE (130°)5.8 mphFogFog
8:35 AM69.8 °F0.0 °F29.93 in1.8 miSE (140°)5.8 mphOvercast
8:55 AM71.6 °F0.0 °F29.93 in3.0 miSSE (150°)5.8 mphOvercast
9:15 AM71.6 °F0.0 °F29.92 in5.0 miSE (140°)5.8 mphHaze
9:35 AM75.2 °F0.0 °F29.93 in7.0 miSE (140°)4.6 mphScattered Clouds
9:55 AM77.0 °F73.4 °F89 %29.92 in5.0 miSSE (150°)6.9 mphClear
10:15 AM78.8 °F68.0 °F69 %29.91 in5.0 miSouth (170°)8.1 mphHaze
10:35 AM80.6 °F66.2 °F61 %29.91 in10.0 miSouth (190°)8.1 mphClear
10:55 AM82.4 °F64.4 °F54 %29.91 in10.0 miSouth (190°)9.2 mphScattered Clouds
11:15 AM82.4 °F64.4 °F54 %29.90 in10.0 miSSE (160°)10.4 mphMostly Cloudy
11:35 AM80.6 °F64.4 °F58 %29.91 in10.0 miSouth (170°)8.1 mphMostly Cloudy
11:55 AM82.4 °F64.4 °F54 %29.90 in10.0 miSouth (190°)8.1 mphMostly Cloudy
12:15 PM82.4 °F62.6 °F51 %29.89 in10.0 miSouth (170°)8.1 mphScattered Clouds
12:35 PM82.4 °F62.6 °F51 %29.88 in10.0 miSouth (180°)8.1 mphScattered Clouds
12:55 PM84.2 °F62.6 °F48 %29.86 in10.0 miSSW (200°)6.9 mphScattered Clouds
1:15 PM86.0 °F60.8 °F43 %29.85 in10.0 miSouth (170°)10.4 mphMostly Cloudy
1:35 PM87.8 °F60.8 °F40 %29.84 in10.0 miSouth (170°)10.4 mphScattered Clouds
1:55 PM87.8 °F59.0 °F38 %29.83 in10.0 miSouth (180°)10.4 mph18.4 mphMostly Cloudy
2:15 PM86.0 °F60.8 °F43 %29.83 in10.0 miSouth (190°)8.1 mphMostly Cloudy
2:35 PM86.0 °F59.0 °F40 %29.82 in10.0 miSouth (190°)15.0 mphMostly Cloudy
2:55 PM86.0 °F60.8 °F43 %29.82 in10.0 miSouth (180°)10.4 mphMostly Cloudy
3:15 PM86.0 °F60.8 °F43 %29.82 in10.0 miSouth (190°)8.1 mph16.1 mphMostly Cloudy
3:35 PM86.0 °F64.4 °F48 %29.82 in10.0 miWSW (250°)10.4 mphMostly Cloudy
3:55 PM86.0 °F64.4 °F48 %29.82 in10.0 miWSW (240°)6.9 mphScattered Clouds
4:15 PM86.0 °F60.8 °F43 %29.82 in10.0 miSSW (200°)11.5 mphScattered Clouds
4:35 PM86.0 °F60.8 °F43 %29.81 in10.0 miSSW (210°)10.4 mphScattered Clouds
4:55 PM86.0 °F60.8 °F43 %29.81 in10.0 miSW (230°)15.0 mph19.6 mphScattered Clouds
5:15 PM84.2 °F60.8 °F45 %29.81 in10.0 miSSW (210°)11.5 mphScattered Clouds
5:35 PM84.2 °F60.8 °F45 %29.81 in10.0 miSSW (210°)11.5 mph16.1 mphMostly Cloudy
5:55 PM84.2 °F62.6 °F48 %29.81 in10.0 miSSW (210°)5.8 mphScattered Clouds
6:15 PM82.4 °F62.6 °F51 %29.82 in10.0 miSSW (210°)6.9 mphScattered Clouds
6:35 PM80.6 °F64.4 °F58 %29.82 in10.0 miSSW (210°)4.6 mphClear
6:55 PM80.6 °F64.4 °F58 %29.82 in10.0 miSSW (210°)4.6 mphClear
7:15 PM78.8 °F64.4 °F61 %29.82 in10.0 miSSW (200°)3.5 mphScattered Clouds
7:35 PM78.8 °F66.2 °F65 %29.83 in10.0 miSSW (200°)3.5 mphClear
7:55 PM78.8 °F66.2 °F65 %29.83 in10.0 miCalmScattered Clouds
8:15 PM77.0 °F66.2 °F69 %29.84 in10.0 miCalmMostly Cloudy
8:35 PM77.0 °F66.2 °F69 %29.84 in10.0 miCalmOvercast
8:55 PM77.0 °F66.2 °F69 %29.83 in10.0 miSouth (170°)4.6 mphMostly Cloudy
9:15 PM75.2 °F64.4 °F69 %29.83 in10.0 miSouth (170°)4.6 mphScattered Clouds
9:35 PM75.2 °F64.4 °F69 %29.82 in10.0 miSSE (150°)4.6 mphClear
9:55 PM75.2 °F64.4 °F69 %29.82 in10.0 miSSE (150°)4.6 mphClear
10:15 PM73.4 °F64.4 °F73 %29.82 in10.0 miSSE (160°)4.6 mphClear
10:35 PM75.2 °F66.2 °F73 %29.82 in10.0 miSouth (180°)5.8 mphClear
10:55 PM73.4 °F66.2 °F78 %29.83 in10.0 miSouth (180°)4.6 mphScattered Clouds
11:15 PM73.4 °F66.2 °F78 %29.83 in10.0 miSouth (170°)5.8 mphScattered Clouds
11:35 PM73.4 °F66.2 °F78 %29.83 in10.0 miSouth (170°)5.8 mphScattered Clouds
11:55 PM73.4 °F66.2 °F78 %29.83 in10.0 miSouth (170°)4.6 mphScattered Clouds
Hourly data recorded from KPCM, located miles away from Playa del Carmen, Quintana Roo







STORIES FROM OUR PARTNERS